Weather History for Bowling Green, KY

Change the Weather History Date:

Monday, May 6, 2013

  Actual Average Record
Temperature  
Mean Temperature 60 °F 64 °F  
Max Temperature 68 °F 75 °F 93 °F (1916)
Min Temperature 51 °F 52 °F 32 °F (1891)
Degree Days  
Heating Degree Days 5 4  
Month to date heating degree days 23 25  
Since 1 July heating degree days 3841 3994  
Cooling Degree Days 0 2  
Month to date cooling degree days 12 12  
Year to date cooling degree days 65 48  
Growing Degree Days 10 (Base 50)    
Moisture  
Dew Point 50 °F    
Average Humidity 74    
Maximum Humidity 96    
Minimum Humidity 52    
Precipitation  
Precipitation 0.04 in 0.19 in 3.22 in (1984)
Month to date precipitation 2.21 1.10  
Year to date precipitation 21.81 17.42  
Snow  
Snow 0.00 in 0.00 in 0.00 in ()
Month to date snowfall 0.0 0.0  
Since 1 July snowfall 3.8 9.1  
Snow Depth 0.00 in    
Sea Level Pressure  
Sea Level Pressure 29.85 in    
Wind  
Wind Speed 4 mph (ENE)    
Max Wind Speed 20 mph    
Max Gust Speed 22 mph    
Visibility 9 miles    
Events Rain , Thunderstorm    
T = Trace of Precipitation, MM = Missing Value Source: NWS Daily Summary

Daily Weather History Graph

Daily Weather History Graph

Search for Another Location

Airport:

Trip Planner

Search our weather history database for the weather conditions in past years. The results will help you decide how hot, cold, wet, or windy it might be!

Date:

Astronomy

May. 06, 2013 Rise Set
Actual Time 5:45 AM CDT 7:39 PM CDT
Civil Twilight 5:17 AM CDT 8:07 PM CDT
Nautical Twilight 4:43 AM CDT 8:42 PM CDT
Astronomical Twilight 4:06 AM CDT 9:18 PM CDT
Moon 3:42 AM CDT (5/6) 4:42 PM CDT (5/6)
Length of Visible Light 14h 50m
Length of Day
13h 53m
Waning Crescent, 11% of the Moon is Illuminated
May 6
Waning Crescent
May 9
New
May 17
First Quarter
May 24
Full
May 31
Last Quarter

Hourly Weather History & Observations

Time (CDT) Temp. Dew Point Humidity Pressure Visibility Wind Dir Wind Speed Gust Speed Precip Events Conditions
12:16 AM 55.4 °F 51.8 °F 88% 29.82 in 10.0 mi NNW 3.5 mph - N/A   Overcast
12:33 AM 55.4 °F 51.8 °F 88% 29.82 in 10.0 mi North 3.5 mph - N/A   Overcast
12:53 AM 54.0 °F 50.0 °F 86% 29.81 in 10.0 mi NNE 3.5 mph - N/A   Overcast
1:53 AM 54.0 °F 50.0 °F 86% 29.80 in 10.0 mi NNE 3.5 mph - N/A   Overcast
2:53 AM 54.0 °F 51.1 °F 90% 29.80 in 10.0 mi Calm Calm - N/A   Overcast
3:53 AM 53.1 °F 50.0 °F 89% 29.79 in 10.0 mi Calm Calm - N/A   Mostly Cloudy
4:17 AM 53.6 °F 51.8 °F 94% 29.78 in 10.0 mi NNW 3.5 mph - N/A   Mostly Cloudy
4:32 AM 53.6 °F 51.8 °F 94% 29.78 in 10.0 mi Calm Calm - N/A   Overcast
4:53 AM 54.0 °F 50.0 °F 86% 29.79 in 10.0 mi Calm Calm - N/A   Overcast
5:18 AM 53.6 °F 51.8 °F 94% 29.80 in 10.0 mi ENE 3.5 mph - N/A   Overcast
5:53 AM 54.0 °F 51.1 °F 90% 29.80 in 10.0 mi Calm Calm - N/A   Overcast
6:29 AM 53.6 °F 51.8 °F 94% 29.81 in 10.0 mi NNW 3.5 mph - 0.01 in   Overcast
6:53 AM 54.0 °F 51.1 °F 90% 29.81 in 10.0 mi NW 3.5 mph - 0.01 in   Overcast
7:08 AM 53.6 °F 51.8 °F 94% 29.82 in 10.0 mi NNE 4.6 mph - N/A   Overcast
7:22 AM 55.4 °F 51.8 °F 88% 29.82 in 10.0 mi NNE 3.5 mph - N/A   Overcast
7:53 AM 55.9 °F 53.1 °F 90% 29.78 in 10.0 mi NW 9.2 mph - 0.00 in Rain Light Rain
8:19 AM 57.2 °F 53.6 °F 88% 29.83 in 10.0 mi ESE 9.2 mph - 0.00 in   Overcast
8:45 AM 57.2 °F 53.6 °F 88% 29.85 in 10.0 mi East 8.1 mph - 0.00 in   Overcast
8:53 AM 57.0 °F 53.1 °F 87% 29.84 in 10.0 mi East 8.1 mph - 0.00 in   Overcast
9:11 AM 57.2 °F 51.8 °F 82% 29.84 in 10.0 mi ESE 6.9 mph - N/A   Overcast
9:53 AM 61.0 °F 51.1 °F 70% 29.85 in 10.0 mi SE 4.6 mph - N/A   Mostly Cloudy
10:53 AM 63.0 °F 48.9 °F 60% 29.86 in 10.0 mi East 9.2 mph - N/A   Mostly Cloudy
11:53 AM 66.0 °F 48.0 °F 52% 29.85 in 10.0 mi ESE 10.4 mph - N/A   Partly Cloudy
12:53 PM 64.9 °F 48.0 °F 54% 29.85 in 10.0 mi ENE 6.9 mph - N/A   Overcast
1:53 PM 66.0 °F 48.9 °F 54% 29.86 in 10.0 mi NE 8.1 mph - N/A   Overcast
2:53 PM 66.9 °F 48.9 °F 52% 29.84 in 10.0 mi ENE 6.9 mph - N/A   Mostly Cloudy
3:53 PM 64.0 °F 51.1 °F 63% 29.84 in 10.0 mi East 6.9 mph - 0.00 in   Overcast
4:53 PM 68.0 °F 51.1 °F 55% 29.83 in 10.0 mi NNE 3.5 mph - 0.00 in   Partly Cloudy
5:53 PM 66.0 °F 51.1 °F 59% 29.84 in 10.0 mi NNE 6.9 mph - N/A   Mostly Cloudy
6:19 PM 59.0 °F 46.4 °F 63% 29.87 in 10.0 mi SE 12.7 mph - N/A   Overcast
6:44 PM 57.2 °F 46.4 °F 67% 29.88 in 9.0 mi SSE 4.6 mph - 0.00 in Rain , Thunderstorm Rain
6:53 PM 57.0 °F 48.0 °F 72% 29.89 in 10.0 mi East 3.5 mph - 0.00 in Rain Light Rain
7:53 PM 55.0 °F 50.0 °F 83% 29.88 in 10.0 mi Calm Calm - 0.03 in   Partly Cloudy
8:53 PM 52.0 °F 48.9 °F 89% 29.91 in 10.0 mi Calm Calm - N/A   Partly Cloudy
9:53 PM 51.1 °F 48.9 °F 92% 29.93 in 3.0 mi Calm Calm - N/A   Clear
10:11 PM 51.8 °F 48.2 °F 88% 29.93 in 1.8 mi Calm Calm - N/A   Clear
10:15 PM 51.8 °F 50.0 °F 94% 29.93 in 0.8 mi Calm Calm - N/A   Clear
10:24 PM 51.8 °F 50.0 °F 94% 29.92 in 1.5 mi Calm Calm - N/A   Clear
10:28 PM 51.8 °F 50.0 °F 94% 29.92 in 3.0 mi Calm Calm - N/A   Clear
10:53 PM 52.0 °F 50.0 °F 93% 29.92 in 10.0 mi Calm Calm - N/A   Clear
11:53 PM 53.1 °F 51.1 °F 93% 29.92 in 10.0 mi Calm Calm - N/A   Clear